[[{"header":{"parameterUnit":"m.s-1","parameterCategory":1,"la1":30.2991,"la2":30.254,"lo1":-89.0895,"lo2":-89.0444,"dy":0.0017,"dx":0.0017,"nx":28,"ny":28,"refTime":"2024-06-05T03:00:00:Z","depth":0,"parameterNumber":2,"parameterNumberName":"U-component_of_WINDS"},"data":[0,0,0,0,0,0,0,0,0,0,0,0,0,0,0,0,0,0,0,0,0,0,0,0,0,0,0,0,0,0,0,0,0,0,0,0,0,0,0,0,0,0,0,0,0,0,0,0,0,0,0,0,0,0,0,0,0,0,2.4606,2.4606,0,2.4607,2.4607,2.4607,2.4576,2.4575,2.4574,2.4574,2.4576,2.4577,2.4578,0,0,0,0,0,0,0,0,0,0,0,0,0,2.4577,2.4577,2.4606,2.4606,2.4606,2.4607,2.4607,2.4607,2.4576,2.4575,2.4574,2.4573,2.4576,2.4577,2.4578,0,0,0,0,0,0,0,0,0,0,0,0,0,2.4585,2.4577,2.4606,2.459,2.4589,2.4607,2.4607,2.4607,2.4576,2.4575,2.4574,2.4573,2.4575,2.4577,2.4578,2.4611,0,0,2.4582,2.4582,0,0,0,0,0,0,0,0,2.4584,2.4586,2.4593,2.4591,2.459,2.459,2.4598,2.4608,2.4577,2.4581,2.4574,2.4572,2.4582,2.4582,2.4586,2.4611,2.4611,2.4582,2.4583,2.4583,2.4584,0,0,0,0,0,0,0,2.4584,2.4586,2.4606,2.4593,2.4591,2.4584,2.4583,2.46,2.4589,2.4581,2.4578,2.4579,2.4581,2.4584,2.4585,2.4611,2.4582,2.4583,2.4584,2.4584,2.4664,2.4666,0,0,0,0,0,0,2.4585,2.4585,2.4606,2.4606,2.4584,2.4585,2.4585,2.4591,2.4588,2.4587,2.458,2.4578,2.4583,2.4584,2.4585,2.4624,2.4583,2.4584,2.4585,2.4663,2.4665,2.4666,0,0,0,0,0,0,2.4585,2.4587,2.4606,2.4595,2.4597,2.4587,2.4594,2.4592,2.4595,2.4588,2.4586,2.4586,2.4582,2.4584,2.4605,2.4624,2.4585,2.4586,2.4661,2.4663,2.4665,2.4702,0,0,0,0,0,0,2.4584,2.4587,2.46,2.4596,2.4598,2.4625,2.4596,2.4593,2.4598,2.4594,2.4593,2.4591,2.4581,2.4603,2.4606,2.4625,2.4587,2.466,2.4662,2.4665,2.4699,2.4705,2.471,0,0,0,0,0,2.4583,2.461,2.46,2.4603,2.4613,2.4627,2.4628,2.4615,2.4599,2.4612,2.4607,2.4591,2.4621,2.4606,2.4609,2.4628,2.4658,2.4661,2.4664,2.4697,2.4704,2.471,0,0,0,0,0,0,2.4617,2.4609,2.4599,2.4625,2.4627,2.4621,2.4637,2.4623,2.463,2.4627,2.4611,2.4611,2.4635,2.4634,2.4616,2.466,2.4637,2.4641,2.466,2.4667,2.4673,2.4673,2.4588,0,0,0,0,0,2.4627,2.4639,2.4632,2.4656,2.4657,2.4647,2.4652,2.4643,2.4644,2.4644,2.4641,2.4643,2.4653,2.466,2.4668,2.4698,2.4698,2.4713,2.4719,2.4724,2.4727,2.4744,2.475,2.4676,2.4676,2.4676,0,0,2.4649,2.4646,2.4655,2.4662,2.4663,2.4675,2.4648,2.4662,2.4671,2.4647,2.4667,2.4664,2.4666,2.4692,2.4703,2.4691,2.4748,2.4727,2.4731,2.4732,2.4747,2.4754,2.4761,2.4678,2.4678,2.4677,0,0,2.4696,2.4695,2.4715,2.4715,2.4716,2.4709,2.4714,2.471,2.4708,2.4727,2.4709,2.472,2.4737,2.4739,2.4742,2.4789,2.4775,2.4792,2.4822,2.4838,2.4844,2.4849,2.4866,2.4873,2.4796,2.4796,2.4796,0,2.4723,2.4741,2.4727,2.4743,2.4747,2.4724,2.4745,2.4746,2.475,2.4753,2.474,2.4761,2.476,2.4787,2.4798,2.4801,2.4807,2.4793,2.4844,2.4849,2.4854,2.487,2.4876,2.4798,2.4798,2.4798,2.4798,0,2.4775,2.4788,2.4804,2.4808,2.4814,2.4832,2.482,2.4828,2.4818,2.4812,2.4833,2.4831,2.4839,2.4844,2.4834,2.4869,2.4862,2.4847,2.4823,2.4863,2.4878,2.4884,2.4801,2.4801,2.48,2.4799,0,0,2.4844,2.4839,2.4845,2.4847,2.4845,2.4855,2.4872,2.488,2.4887,2.489,2.4904,2.4919,2.4905,2.4909,2.4899,2.4913,2.4951,2.4895,2.4895,2.4906,2.499,2.5002,2.5009,2.4941,2.4942,2.4943,2.499,0,2.4889,2.4918,2.4906,2.4936,2.4948,2.4927,2.4942,2.4943,2.4938,2.4948,2.4942,2.4953,2.4933,2.4935,2.4948,2.4943,2.4967,2.494,2.4955,2.4956,2.4956,2.5017,2.503,2.5074,2.4995,2.4996,2.4997,0,2.4947,2.4952,2.4984,2.498,2.4985,2.4998,2.5004,2.5014,2.5014,2.501,2.5014,2.5001,2.5018,2.4994,2.5017,2.4999,2.5004,2.5003,2.5004,2.5006,2.4979,2.5021,2.5088,2.5095,2.5006,2.5006,2.5005,0,2.4995,2.5009,2.503,2.5032,2.5029,2.5039,2.5038,2.5037,2.5043,2.5048,2.5051,2.5059,2.5063,2.5069,2.5058,2.5042,2.5083,2.5058,2.5081,2.5081,2.5091,2.5091,2.516,2.5093,2.5093,2.5093,2.5093,0,2.5048,2.5068,2.5052,2.5065,2.5087,2.5072,2.5094,2.5091,2.5091,2.5103,2.5085,2.5097,2.5082,2.5092,2.5084,2.5105,2.5106,2.5104,2.5101,2.5106,2.5106,2.511,2.5107,2.5095,2.5094,2.5094,2.5094,0,2.5105,2.5095,2.5116,2.5111,2.511,2.5127,2.5123,2.5134,2.5128,2.5144,2.5147,2.5137,2.5148,2.5138,2.5149,2.5143,2.5171,2.5164,2.5171,2.5169,2.5192,2.5191,2.5267,2.5277,2.5203,2.5204,2.5204,0,2.514,2.5155,2.5151,2.5158,2.5158,2.5169,2.5174,2.516,2.5167,2.5169,2.5181,2.519,2.5197,2.5217,2.5211,2.5219,2.5212,2.5239,2.5214,2.5218,2.5214,2.5213,2.5215,2.5244,2.5245,2.5246,2.5246,0,2.5203,2.5197,2.5206,2.5212,2.5219,2.5224,2.5227,2.5233,2.5219,2.5227,2.5238,2.5244,2.5255,2.5265,2.5271,2.527,2.5256,2.5254,2.526,2.5265,2.5268,2.5267,2.5186,2.5253,2.5252,2.5252,2.5251,2.5251,2.5251,2.5264,2.5263,2.5273,2.5273,2.5277,2.5288,2.5283,2.5292,2.5299,2.529,2.5304,2.5305,2.5312,2.5313,2.5324,2.5313,2.5321,2.5323,2.5325,2.5329,2.5266,2.5325,2.5324,2.5324,2.5324,2.5324,0,2.5314,2.5312,2.5321,2.5326,2.5334,2.5319,2.5322,2.533,2.5342,2.5343,2.5351,2.5364,2.5373,2.5368,2.5376,2.5386,2.538,2.5389,2.5388,2.5389,2.5338,2.5332,2.5394,2.5394,2.5394,2.5394,2.5394,2.5394,2.5348,2.5368,2.5362,2.5383,2.5381,2.5395,2.5397,2.54,2.5401,2.5417,2.5424,2.5421,2.542,2.5428,2.5436,2.5434,2.5438,2.545,2.5446,2.5399,2.5392,2.5386,2.538,2.5451,2.5451,2.5496,2.5496,2.5496]},{"header":{"parameterUnit":"m.s-1","parameterCategory":1,"la1":30.2991,"la2":30.254,"lo1":-89.0895,"lo2":-89.0444,"dy":0.0017,"dx":0.0017,"nx":28,"ny":28,"refTime":"2024-06-05T03:00:00:Z","depth":0,"parameterNumber":3,"parameterNumberName":"V-component_of_WINDS"},"data":[0,0,0,0,0,0,0,0,0,0,0,0,0,0,0,0,0,0,0,0,0,0,0,0,0,0,0,0,0,0,0,0,0,0,0,0,0,0,0,0,0,0,0,0,0,0,0,0,0,0,0,0,0,0,0,0,0,0,1.8305,1.8306,0,1.8329,1.833,1.833,1.8325,1.8325,1.8324,1.8324,1.8346,1.8347,1.8348,0,0,0,0,0,0,0,0,0,0,0,0,0,1.8254,1.8255,1.8305,1.8306,1.8306,1.8329,1.833,1.833,1.8325,1.8325,1.8324,1.8324,1.8346,1.8347,1.8349,0,0,0,0,0,0,0,0,0,0,0,0,0,1.8277,1.8255,1.8305,1.8306,1.8307,1.8329,1.833,1.833,1.8325,1.8325,1.8324,1.8323,1.8346,1.8347,1.8349,1.8371,0,0,1.8353,1.8354,0,0,0,0,0,0,0,0,1.8276,1.8279,1.8306,1.8306,1.8307,1.8324,1.832,1.8344,1.8325,1.8318,1.8324,1.8323,1.8339,1.8341,1.8347,1.8372,1.8373,1.8353,1.8354,1.8355,1.8355,0,0,0,0,0,0,0,1.8274,1.8278,1.8315,1.8306,1.8307,1.8305,1.8308,1.8324,1.8332,1.8319,1.8318,1.8321,1.8339,1.8346,1.8348,1.8373,1.8353,1.8355,1.8356,1.8356,1.8418,1.8419,0,0,0,0,0,0,1.8272,1.8277,1.8314,1.8315,1.8289,1.8307,1.831,1.8319,1.8332,1.8333,1.8322,1.8321,1.8343,1.8346,1.8348,1.8376,1.8355,1.8356,1.8357,1.8418,1.8418,1.8419,0,0,0,0,0,0,1.8271,1.8276,1.8313,1.8296,1.8301,1.8308,1.8319,1.832,1.8326,1.8334,1.8335,1.8327,1.8343,1.8346,1.8366,1.8376,1.8357,1.8358,1.8417,1.8418,1.8419,1.8431,0,0,0,0,0,0,1.827,1.8275,1.8284,1.8296,1.8302,1.833,1.8319,1.8321,1.8329,1.8328,1.8339,1.8341,1.8343,1.8363,1.8367,1.8378,1.836,1.8416,1.8417,1.8418,1.8429,1.8432,1.8434,0,0,0,0,0,1.8268,1.8286,1.8285,1.8289,1.8313,1.8331,1.8334,1.8336,1.833,1.8338,1.8344,1.834,1.8375,1.8365,1.837,1.8381,1.8415,1.8417,1.8418,1.8428,1.8431,1.8434,0,0,0,0,0,0,1.8274,1.8288,1.8286,1.8309,1.8319,1.833,1.8341,1.834,1.8352,1.835,1.8352,1.8355,1.8375,1.838,1.8369,1.8404,1.8394,1.8396,1.84,1.8403,1.8405,1.8404,1.8361,0,0,0,0,0,1.8278,1.8293,1.8303,1.8322,1.8327,1.8333,1.8341,1.8343,1.8353,1.8357,1.8364,1.8373,1.8386,1.8395,1.8407,1.843,1.8432,1.844,1.8442,1.8444,1.8447,1.846,1.8463,1.8425,1.8425,1.8425,0,0,1.8287,1.8296,1.8304,1.8323,1.8331,1.8346,1.8337,1.8352,1.8363,1.8359,1.8378,1.8383,1.8394,1.8416,1.8425,1.8421,1.8458,1.8447,1.8448,1.8449,1.8462,1.8465,1.8469,1.8426,1.8426,1.8425,0,0,1.8309,1.8318,1.8335,1.8343,1.8356,1.836,1.8364,1.8376,1.8379,1.8399,1.8396,1.8408,1.8431,1.8439,1.8446,1.8473,1.847,1.8476,1.8489,1.8502,1.8505,1.8508,1.8518,1.8521,1.8479,1.8479,1.8479,0,1.8318,1.834,1.8343,1.8359,1.8368,1.8366,1.8383,1.8391,1.8406,1.8412,1.8407,1.8435,1.8442,1.8466,1.8472,1.8478,1.8483,1.8475,1.8504,1.8507,1.851,1.8519,1.8523,1.8479,1.8479,1.8479,1.8479,0,1.835,1.8366,1.8378,1.8394,1.8404,1.842,1.8425,1.8435,1.8435,1.844,1.846,1.8469,1.8483,1.8489,1.8489,1.8512,1.8509,1.8504,1.8494,1.8514,1.8523,1.8527,1.848,1.848,1.848,1.848,0,0,1.8377,1.8396,1.84,1.8408,1.8422,1.8433,1.845,1.8465,1.8473,1.8484,1.8498,1.8517,1.8513,1.8521,1.8522,1.8533,1.8554,1.8526,1.8527,1.8532,1.8581,1.8585,1.8589,1.8552,1.8553,1.8553,1.858,0,1.8401,1.8431,1.8435,1.8461,1.8475,1.8474,1.8488,1.8498,1.8503,1.8516,1.8521,1.8535,1.8528,1.8533,1.8543,1.8549,1.8564,1.8547,1.8565,1.8566,1.8563,1.8594,1.8598,1.8623,1.8584,1.8584,1.8585,0,1.8434,1.8447,1.8475,1.8487,1.8494,1.8506,1.8521,1.8533,1.8544,1.8547,1.8557,1.8556,1.8573,1.8562,1.8586,1.8574,1.8582,1.8586,1.8587,1.8589,1.8577,1.8597,1.8631,1.8635,1.859,1.859,1.8589,0,1.8451,1.8475,1.8495,1.8502,1.8517,1.8526,1.8533,1.8544,1.8553,1.8565,1.8571,1.8585,1.8592,1.8603,1.8607,1.8598,1.863,1.8619,1.8633,1.8633,1.8639,1.8639,1.8675,1.8644,1.8643,1.8643,1.8643,0,1.8478,1.8495,1.8504,1.8516,1.8535,1.8539,1.8558,1.8564,1.8574,1.8587,1.8587,1.8599,1.8603,1.8616,1.8619,1.8638,1.8641,1.8644,1.8644,1.8644,1.8644,1.8649,1.8648,1.8644,1.8644,1.8644,1.8644,0,1.8501,1.8507,1.8529,1.8542,1.8546,1.8559,1.857,1.8582,1.8587,1.8604,1.8608,1.8616,1.8632,1.8636,1.8654,1.8656,1.8679,1.8678,1.8675,1.8676,1.8689,1.8688,1.873,1.8736,1.87,1.87,1.8701,0,1.8518,1.8531,1.8546,1.8555,1.8563,1.8577,1.8587,1.8591,1.8601,1.8616,1.8626,1.8641,1.8654,1.8679,1.8686,1.87,1.8699,1.8713,1.8701,1.8701,1.87,1.8699,1.8701,1.8715,1.8716,1.8716,1.8716,0,1.8547,1.855,1.8564,1.858,1.8591,1.8603,1.8615,1.8622,1.8628,1.864,1.8656,1.8666,1.8685,1.8701,1.8715,1.8722,1.872,1.872,1.8724,1.8724,1.8722,1.8724,1.8682,1.8719,1.8719,1.8718,1.8718,1.8718,1.8568,1.858,1.8593,1.8609,1.8618,1.8629,1.8642,1.8648,1.8662,1.8679,1.8681,1.8698,1.871,1.8729,1.8737,1.875,1.8746,1.8752,1.8753,1.8755,1.8756,1.872,1.8753,1.8753,1.8753,1.8753,1.8753,0,1.8598,1.8606,1.8621,1.8638,1.865,1.8649,1.8662,1.8672,1.8688,1.8699,1.8712,1.8731,1.8746,1.8755,1.877,1.878,1.8779,1.8783,1.8783,1.8785,1.8759,1.8754,1.8783,1.8783,1.8783,1.8783,1.8783,1.8783,1.8615,1.8636,1.864,1.8666,1.8674,1.8692,1.87,1.871,1.8719,1.8741,1.8754,1.8759,1.877,1.8786,1.88,1.8802,1.8808,1.8812,1.8814,1.8789,1.8786,1.8783,1.8779,1.8813,1.8813,1.8839,1.8839,1.8839]}]]